Location: Baia Mare
(47.6567°N, 23.5850°E)
Time: 00:21:03
(UTC+03:00)

ISS - Pass Details

Date: 25 July 2018
Orbit: 402 x 408 km, 51.6° (Epoch: 16 July)

Event Time Altitude Azimuth Distance (km) Brightness Sun altitude
Rises 22:02:29 0° 256° (WSW) 2,315 0.6 -8.0°
Reaches altitude 10° 22:04:34 10° 260° (W) 1,458 -0.4 -8.3°
Maximum altitude 22:07:48 61° 342° (NNW) 462 -3.3 -8.7°
Drops below altitude 10° 22:11:04 10° 64° (ENE) 1,465 -1.2 -9.1°
Sets 22:13:10 0° 68° (ENE) 2,328 -0.2 -9.4°
